Change the Weather History Date:

Wednesday, April 2, 2014

  Actual Average (KGVL) Record (KGVL)
Temperature  
Mean Temperature 68 °F 57 °F  
Max Temperature 84 °F 67 °F 89 °F (1940)
Min Temperature 53 °F 47 °F 23 °F (1942)
Degree Days  
Heating Degree Days 0 9  
Month to date heating degree days 18  
Since 1 July heating degree days 2870  
Cooling Degree Days 4 0  
Month to date cooling degree days 0  
Year to date cooling degree days 5  
Growing Degree Days 18 (Base 50)    
Moisture  
Dew Point 18 °F    
Average Humidity 18    
Maximum Humidity 36    
Minimum Humidity 4    
Precipitation  
Precipitation 0.00 in 0.12 in 2.99 in (1936)
Month to date precipitation 0.25  
Year to date precipitation 15.57  
Sea Level Pressure  
Sea Level Pressure 30.10 in    
Wind  
Wind Speed 4 mph (SW)    
Max Wind Speed 13 mph    
Max Gust Speed 21 mph    
Visibility 10 miles    
Events      
T = Trace of Precipitation, MM = Missing Value Source: NWS Daily Summary

Daily Weather History Graph

Daily Weather History Graph

Search for Another Location

Airport or City:

Trip Planner

Search our weather history database for the weather conditions in past years. The results will help you decide how hot, cold, wet, or windy it might be!

Date:

Astronomy

Apr. 02, 2014 Rise Set
Actual Time 7:20 AM EDT 7:55 PM EDT
Civil Twilight 6:54 AM EDT 8:21 PM EDT
Nautical Twilight 6:25 AM EDT 8:50 PM EDT
Astronomical Twilight 5:54 AM EDT 9:21 PM EDT
Moon 9:11 AM EDT (4/2) 11:09 PM EDT (4/2)
Length of Visible Light 13h 26m
Length of Day
12h 35m
Waxing Crescent, 10% of the Moon is Illuminated
Apr 2
Waxing Crescent
Apr 7
First Quarter
Apr 15
Full
Apr 22
Last Quarter
Apr 29
New

Hourly Weather History & Observations

Time (EDT) Temp. Dew Point Humidity Pressure Visibility Wind Dir Wind Speed Gust Speed Precip Events Conditions
12:15 AM 68.0 °F -4.0 °F 6% 30.11 in - WSW 3.5 mph - N/A   Clear
12:35 AM 66.2 °F -2.2 °F 6% 30.11 in - WSW 3.5 mph - N/A   Clear
12:55 AM 66.2 °F -4.0 °F 6% 30.11 in - West 3.5 mph - N/A   Clear
1:15 AM 64.4 °F 1.4 °F 8% 30.10 in - Calm Calm - N/A   Clear
1:35 AM 62.6 °F 3.2 °F 9% 30.10 in - Calm Calm - N/A   Clear
2:15 AM 62.6 °F 8.6 °F 12% 30.10 in - Calm Calm - N/A   Clear
2:35 AM 59.0 °F 14.0 °F 17% 30.10 in - Calm Calm - N/A   Clear
2:55 AM 60.8 °F 12.2 °F 15% 30.09 in - South 4.6 mph - N/A   Clear
3:15 AM 60.8 °F 12.2 °F 15% 30.09 in - SSW 4.6 mph - N/A   Clear
3:35 AM 59.0 °F 15.8 °F 19% 30.09 in - SW 3.5 mph - N/A   Clear
3:55 AM 60.8 °F 14.0 °F 16% 30.09 in - SSW 3.5 mph - N/A   Clear
4:15 AM 59.0 °F 14.0 °F 17% 30.09 in - Calm Calm - N/A   Clear
4:35 AM 55.4 °F 15.8 °F 21% 30.09 in - Calm Calm - N/A   Clear
4:55 AM 59.0 °F 14.0 °F 17% 30.09 in - Calm Calm - N/A   Clear
5:15 AM 57.2 °F 15.8 °F 20% 30.09 in - Calm Calm - N/A   Clear
5:35 AM 55.4 °F 17.6 °F 23% 30.09 in - Calm Calm - N/A   Clear
5:55 AM 53.6 °F 23.0 °F 30% 30.09 in - West 3.5 mph - N/A   Clear
6:15 AM 53.6 °F 23.0 °F 30% 30.10 in - Calm Calm - N/A   Scattered Clouds
6:35 AM 53.6 °F 21.2 °F 28% 30.10 in - Calm Calm - N/A   Clear
6:55 AM 53.6 °F 21.2 °F 28% 30.10 in - Calm Calm - N/A   Clear
7:15 AM 53.6 °F 21.2 °F 28% 30.11 in - Calm Calm - N/A   Clear
8:35 AM 57.2 °F 30.2 °F 36% 30.13 in 10.0 mi Calm Calm - N/A   Scattered Clouds
8:55 AM 59.0 °F 24.8 °F 27% 30.14 in 10.0 mi West 5.8 mph - N/A   Clear
9:15 AM 60.8 °F 26.6 °F 27% 30.14 in 10.0 mi West 4.6 mph - N/A   Clear
9:35 AM 62.6 °F 28.4 °F 27% 30.14 in 10.0 mi West 9.2 mph - N/A   Clear
9:55 AM 64.4 °F 28.4 °F 26% 30.14 in 10.0 mi West 8.1 mph - N/A   Clear
10:15 AM 68.0 °F 28.4 °F 23% 30.15 in 10.0 mi West 6.9 mph - N/A   Clear
10:35 AM 69.8 °F 28.4 °F 21% 30.15 in 10.0 mi WSW 5.8 mph - N/A   Clear
10:55 AM 71.6 °F 26.6 °F 19% 30.15 in 10.0 mi West 5.8 mph - N/A   Clear
11:15 AM 73.4 °F 24.8 °F 16% 30.15 in 10.0 mi NW 9.2 mph - N/A   Clear
11:35 AM 75.2 °F 17.6 °F 11% 30.15 in 10.0 mi West 4.6 mph - N/A   Clear
11:55 AM 77.0 °F 10.4 °F 8% 30.14 in 10.0 mi SSW 6.9 mph - N/A   Clear
12:35 PM 78.8 °F - N/A% 30.13 in 10.0 mi West 5.8 mph - N/A   Clear
12:55 PM 78.8 °F - N/A% 30.13 in 10.0 mi SW 5.8 mph - N/A   Clear
1:15 PM 80.6 °F - N/A% 30.13 in 10.0 mi WSW 9.2 mph - N/A   Clear
1:55 PM 82.4 °F - N/A% 30.12 in 10.0 mi SW 8.1 mph - N/A   Clear
2:15 PM 82.4 °F - N/A% 30.11 in 10.0 mi West 10.4 mph - N/A   Clear
2:35 PM 82.4 °F - N/A% 30.10 in 10.0 mi SSW 8.1 mph - N/A   Clear
2:55 PM 82.4 °F - N/A% 30.09 in 10.0 mi West 6.9 mph - N/A   Clear
3:15 PM 82.4 °F - N/A% 30.08 in 10.0 mi WSW 12.7 mph 20.7 mph N/A   Scattered Clouds
3:35 PM 84.2 °F - N/A% 30.07 in 10.0 mi SW 8.1 mph - N/A   Scattered Clouds
3:55 PM 84.2 °F - N/A% 30.06 in 10.0 mi SW 6.9 mph - N/A   Clear
4:15 PM 82.4 °F - N/A% 30.06 in 10.0 mi SW 8.1 mph 20.7 mph N/A   Clear
4:35 PM 84.2 °F - N/A% 30.05 in 10.0 mi West 10.4 mph 16.1 mph N/A   Clear
4:55 PM 82.4 °F - N/A% 30.06 in 10.0 mi SW 10.4 mph - N/A   Clear
5:15 PM 82.4 °F - N/A% 30.05 in 10.0 mi SW 9.2 mph - N/A   Clear
5:35 PM 82.4 °F - N/A% 30.05 in 10.0 mi WSW 8.1 mph 19.6 mph N/A   Clear
5:55 PM 82.4 °F - N/A% 30.05 in 10.0 mi SW 10.4 mph - N/A   Clear
6:15 PM 82.4 °F - N/A% 30.05 in 10.0 mi SSW 8.1 mph - N/A   Clear
6:35 PM 80.6 °F - N/A% 30.06 in 10.0 mi SW 8.1 mph - N/A   Clear
6:55 PM 80.6 °F -31.0 °F 4% 30.06 in 10.0 mi WSW 9.2 mph - N/A   Clear
7:15 PM 80.6 °F -4.0 °F 4% 30.06 in 10.0 mi WSW 6.9 mph - N/A   Scattered Clouds
7:35 PM 78.8 °F 5.0 °F 6% 30.06 in 10.0 mi SW 6.9 mph - N/A   Mostly Cloudy
7:55 PM 78.8 °F 10.4 °F 7% 30.06 in 10.0 mi SW 4.6 mph - N/A   Scattered Clouds
8:15 PM 77.0 °F 15.8 °F 10% 30.06 in 10.0 mi SSW 3.5 mph - N/A   Clear
8:35 PM 77.0 °F 19.4 °F 12% 30.07 in 10.0 mi SW 4.6 mph - N/A   Clear
8:55 PM 75.2 °F 23.0 °F 14% 30.08 in 10.0 mi SW 4.6 mph - N/A   Clear
9:15 PM 73.4 °F 26.6 °F 18% 30.08 in 10.0 mi SW 4.6 mph - N/A   Clear
9:35 PM 73.4 °F 28.4 °F 19% 30.08 in 10.0 mi SSW 3.5 mph - N/A   Clear
9:55 PM 73.4 °F 32.0 °F 22% 30.09 in 10.0 mi SW 3.5 mph - N/A   Clear
10:15 PM 71.6 °F 32.0 °F 23% 30.08 in 10.0 mi South 3.5 mph - N/A   Clear
10:35 PM 71.6 °F 32.0 °F 23% 30.09 in 10.0 mi Calm Calm - N/A   Clear
10:55 PM 69.8 °F 33.8 °F 27% 30.09 in 10.0 mi Calm Calm - N/A   Clear
11:15 PM 71.6 °F 33.8 °F 25% 30.09 in 10.0 mi Calm Calm - N/A   Clear
11:35 PM 69.8 °F 33.8 °F 27% 30.09 in 10.0 mi Calm Calm - N/A   Clear
11:55 PM 66.2 °F 37.4 °F 35% 30.09 in 10.0 mi Calm Calm - N/A   Clear